LA4GY-1 Mo I Rana NO current weather conditions

sailwx.info

Wind from 246

Air temperature 11.7° C
Dewpoint 10.4° C

Last reported at 2020-Aug-15 18:50 UTC.
Time now 2020-Aug-15 19:24 UTC

Location: N 66°18' E 013°57'.
View on Google Maps.

See reports from other nearby stations

  
Tides and Currents Weather Stations Pressure Air Temp Water Temp Dewpoint Dewpoint Depression Visibility Wind Speed Wind Dir Waves Ship Positions
date/time (UTC)wind fromknots sea level pressurealtimeterstation pressurevisibilityair tempwater tempwave heightnotes
2020-Aug-15 19:00 283 0 gusting 4 11.7
2020-Aug-15 18:50 246 11.7
2020-Aug-15 18:40 277 1 gusting 4 11.7
2020-Aug-15 18:30 261 12.2
2020-Aug-15 18:20 019 1 gusting 5 12.2
2020-Aug-15 18:10 263 12.2
2020-Aug-15 18:00 287 12.2
2020-Aug-15 17:50 265 0 gusting 4 12.2
2020-Aug-15 17:40 277 12.2
2020-Aug-15 17:30 303 12.8
2020-Aug-15 17:20 214 0 gusting 5 12.8
2020-Aug-15 17:10 219 0 gusting 5 12.8
2020-Aug-15 17:00 238 0 gusting 6 12.8
2020-Aug-15 16:50 223 12.8
2020-Aug-15 16:40 238 12.8
2020-Aug-15 16:30 047 0 gusting 5 13.3
2020-Aug-15 16:20 168 0 gusting 8 13.3
2020-Aug-15 16:10 251 0 gusting 2 13.3
2020-Aug-15 16:00 085 13.3
2020-Aug-15 15:50 207 1 gusting 6 13.3
2020-Aug-15 15:40 329 0 gusting 4 13.3
2020-Aug-15 15:30 201 13.3
2020-Aug-15 15:20 187 2 gusting 5 13.3
2020-Aug-15 15:10 028 0 gusting 5 13.3
2020-Aug-15 15:00 207 2 gusting 5 13.3
2020-Aug-15 14:50 258 2 gusting 4 13.3
2020-Aug-15 14:40 121 0 gusting 6 13.3
2020-Aug-15 14:30 209 13.3
2020-Aug-15 14:20 219 13.3
2020-Aug-15 14:10 188 1 gusting 10 13.3
2020-Aug-15 14:00 203 2 gusting 10 13.9
2020-Aug-15 13:50 214 1 gusting 6 13.9
2020-Aug-15 13:40 255 1 gusting 11 13.9
2020-Aug-15 13:30 217 3 gusting 6 13.9
2020-Aug-15 13:20 169 1 gusting 8 13.9
2020-Aug-15 13:10 219 4 gusting 8 13.9
2020-Aug-15 13:00 216 1 gusting 18 13.9
2020-Aug-15 12:50 270 5 gusting 14 13.9
2020-Aug-15 12:40 206 1 gusting 8 13.9
2020-Aug-15 12:30 185 1 gusting 5 13.9
2020-Aug-15 12:20 261 2 gusting 11 13.9
2020-Aug-15 12:10 266 0 gusting 6 13.9
2020-Aug-15 12:00 216 2 gusting 6 13.9
2020-Aug-15 11:50 251 2 gusting 6 14.4
2020-Aug-15 11:40 249 2 gusting 6 13.9
2020-Aug-15 11:30 159 3 gusting 7 13.9
2020-Aug-15 11:20 274 1 gusting 7 13.9
2020-Aug-15 11:10 270 3 gusting 15 14.4
2020-Aug-15 11:00 247 4 gusting 13 14.4
2020-Aug-15 10:50 229 1 gusting 13 14.4
2020-Aug-15 10:40 033 2 gusting 6 14.4
2020-Aug-15 10:30 264 1 gusting 13 14.4
2020-Aug-15 10:20 259 2 gusting 13 14.4
2020-Aug-15 10:10 235 1 gusting 6 14.4
2020-Aug-15 10:00 232 2 gusting 5 13.9
2020-Aug-15 09:50 207 0 gusting 4 13.9
2020-Aug-15 09:40 286 13.9
2020-Aug-15 09:30 273 1 gusting 5 13.9
2020-Aug-15 09:20 225 0 gusting 5 13.9
2020-Aug-15 09:10 279 1 gusting 5 13.9
2020-Aug-15 09:00 228 0 gusting 2 13.9
2020-Aug-15 08:50 261 0 gusting 6 13.9
2020-Aug-15 08:40 221 1 gusting 6 13.3
2020-Aug-15 08:30 151 0 gusting 4 13.3
2020-Aug-15 08:20 211 1 gusting 6 13.3
2020-Aug-15 08:10 278 2 gusting 6 13.3
2020-Aug-15 08:00 200 1 gusting 8 12.8
2020-Aug-15 07:50 219 4 gusting 6 12.8
2020-Aug-15 07:40 200 2 gusting 6 12.8
2020-Aug-15 07:30 196 1 gusting 5 12.8
2020-Aug-15 07:20 213 2 gusting 5 12.8
2020-Aug-15 07:10 227 1 gusting 4 12.8
2020-Aug-15 07:00 227 2 gusting 6 12.8
2020-Aug-15 06:50 211 2 gusting 5 12.8
2020-Aug-15 06:40 225 2 gusting 5 12.8
2020-Aug-15 06:30 223 1 gusting 11 12.8
2020-Aug-15 06:20 209 2 gusting 11 12.8
2020-Aug-15 06:10 218 2 gusting 5 12.2
2020-Aug-15 06:00 213 0 gusting 4 12.2
2020-Aug-15 05:50 212 0 gusting 4 12.2
2020-Aug-15 05:40 221 12.2
2020-Aug-15 05:30 222 0 gusting 4 12.2
2020-Aug-15 05:20 356 12.2
2020-Aug-15 05:10 207 0 gusting 5 12.2
2020-Aug-15 05:00 182 3 gusting 5 12.2
2020-Aug-15 04:50 206 0 gusting 6 12.2
2020-Aug-15 04:40 215 0 gusting 6 12.2
2020-Aug-15 04:30 204 3 gusting 5 12.2
2020-Aug-15 04:20 178 0 gusting 7 11.7
2020-Aug-15 04:10 203 0 gusting 2 11.7
2020-Aug-15 04:00 204 1 gusting 4 11.7
2020-Aug-15 03:50 178 11.7
2020-Aug-15 03:40 173 1 gusting 4 11.7
2020-Aug-15 03:30 181 11.7
2020-Aug-15 03:20 182 0 gusting 1 11.7
2020-Aug-15 03:10 189 0 gusting 2 11.7
2020-Aug-15 03:00 198 0 gusting 5 11.7
2020-Aug-15 02:50 208 11.7
2020-Aug-15 02:40 209 11.1
2020-Aug-15 02:30 166 11.1
2020-Aug-15 02:20 166 11.1
2020-Aug-15 02:10 166 11.1
2020-Aug-15 02:00 166 11.1
2020-Aug-15 01:50 161 11.1
2020-Aug-15 01:40 158 11.1
2020-Aug-15 01:30 234 11.1
2020-Aug-15 01:20 234 11.1
2020-Aug-15 01:10 233 11.1
2020-Aug-15 01:00 222 11.1
2020-Aug-15 00:50 223 11.1
2020-Aug-15 00:40 222 11.1
2020-Aug-15 00:30 223 11.1
2020-Aug-15 00:20 222 0 gusting 1 11.1
2020-Aug-15 00:10 222 11.1
2020-Aug-15 00:00 223 11.1
2020-Aug-14 23:50 223 0 gusting 1 11.1
2020-Aug-14 23:40 223 11.7
2020-Aug-14 23:30 213 0 gusting 6 11.7
2020-Aug-14 23:20 259 1 gusting 6 11.7
2020-Aug-14 23:10 005 11.7
2020-Aug-14 23:00 242 0 gusting 2 11.7
2020-Aug-14 22:50 312 11.7
2020-Aug-14 22:40 312 0 gusting 4 11.7
2020-Aug-14 22:30 139 0 gusting 4 11.7
2020-Aug-14 22:20 121 11.7
2020-Aug-14 22:10 056 0 gusting 1 11.7
2020-Aug-14 22:00 056 12.2
2020-Aug-14 21:50 056 12.2
2020-Aug-14 21:40 064 12.2
2020-Aug-14 21:30 064 12.2
2020-Aug-14 21:20 308 1 gusting 7 12.2
2020-Aug-14 21:10 12.8
2020-Aug-14 21:00 316 12.8
2020-Aug-14 20:50 282 12.8
2020-Aug-14 20:40 269 0 gusting 4 12.8
2020-Aug-14 20:30 321 1 gusting 4 12.8
2020-Aug-14 20:20 274 12.8
2020-Aug-14 20:10 283 0 gusting 5 12.8
2020-Aug-14 20:00 011 12.8
2020-Aug-14 19:50 322 13.3
2020-Aug-14 19:40 329 13.3
2020-Aug-14 19:30 313 13.3
2020-Aug-14 19:20 342 13.3
2020-Aug-14 19:10 321 13.3
2020-Aug-14 19:00 294 13.3
2020-Aug-14 18:50 290 13.3
2020-Aug-14 18:40 036 13.9
2020-Aug-14 18:30 273 13.9
2020-Aug-14 18:20 265 0 gusting 5 13.9
2020-Aug-14 18:10 255 1 gusting 5 13.9
2020-Aug-14 18:00 284 1 gusting 4 13.9
2020-Aug-14 17:50 290 13.9
2020-Aug-14 17:40 296 0 gusting 6 13.9
2020-Aug-14 17:30 244 13.9
2020-Aug-14 17:20 270 1 gusting 5 13.9
2020-Aug-14 17:10 293 14.4
2020-Aug-14 17:00 270 14.4
2020-Aug-14 16:50 199 0 gusting 6 14.4
2020-Aug-14 16:40 259 1 gusting 8 14.4
2020-Aug-14 16:30 278 0 gusting 6 14.4
2020-Aug-14 16:20 282 0 gusting 6 14.4
2020-Aug-14 16:10 253 0 gusting 6 14.4
2020-Aug-14 16:00 260 0 gusting 6 14.4
2020-Aug-14 15:50 117 2 gusting 6 14.4
2020-Aug-14 15:40 289 4 gusting 11 14.4
2020-Aug-14 15:30 257 0 gusting 5 15.0
2020-Aug-14 15:20 216 15.0
2020-Aug-14 15:10 277 0 gusting 4 15.0
2020-Aug-14 15:00 214 15.6
2020-Aug-14 14:50 144 0 gusting 8 15.6
2020-Aug-14 14:40 275 2 gusting 6 15.0
2020-Aug-14 14:30 182 15.0
2020-Aug-14 14:20 124 0 gusting 6 15.0
2020-Aug-14 14:10 239 1 gusting 11 15.0
2020-Aug-14 14:00 238 0 gusting 8 15.0
2020-Aug-14 13:50 326 2 gusting 8 15.0
2020-Aug-14 13:40 263 0 gusting 6 15.0
2020-Aug-14 13:30 244 0 gusting 7 15.0
2020-Aug-14 13:20 266 1 gusting 6 15.0
2020-Aug-14 13:10 303 3 gusting 11 15.0
2020-Aug-14 13:00 172 1 gusting 6 15.6
2020-Aug-14 12:50 252 1 gusting 10 15.6
2020-Aug-14 12:40 139 0 gusting 4 15.6
2020-Aug-14 12:30 196 0 gusting 2 15.0
2020-Aug-14 12:20 273 0 gusting 5 15.0
2020-Aug-14 12:10 275 0 gusting 8 15.0
2020-Aug-14 12:00 314 1 gusting 7 15.6
2020-Aug-14 11:50 284 0 gusting 6 16.1
2020-Aug-14 11:40 193 16.1
2020-Aug-14 11:30 212 16.1
2020-Aug-14 11:20 223 1 gusting 5 15.6
2020-Aug-14 11:10 257 1 gusting 8 16.1
2020-Aug-14 11:00 192 3 gusting 10 15.6
2020-Aug-14 10:50 166 1 gusting 10 15.0
2020-Aug-14 10:40 247 1 gusting 4 15.0
2020-Aug-14 10:30 155 1 gusting 6 15.0
2020-Aug-14 10:20 251 2 gusting 8 14.4
2020-Aug-14 10:10 008 1 gusting 15 14.4
2020-Aug-14 10:00 177 14.4
2020-Aug-14 09:50 280 1 gusting 8 14.4
2020-Aug-14 09:40 236 0 gusting 2 13.9
2020-Aug-14 09:30 174 0 gusting 4 13.9
2020-Aug-14 09:20 098 0 gusting 5 13.9
2020-Aug-14 09:10 355 0 gusting 4 13.9
2020-Aug-14 09:00 201 0 gusting 1 13.9
2020-Aug-14 08:50 309 13.9
2020-Aug-14 08:40 180 0 gusting 1 13.9
2020-Aug-14 08:30 181 13.9
2020-Aug-14 08:20 180 13.9
2020-Aug-14 08:10 200 13.3
2020-Aug-14 08:00 135 0 gusting 7 13.3
2020-Aug-14 07:50 074 13.3
2020-Aug-14 07:40 074 13.3
2020-Aug-14 07:30 074 13.3
2020-Aug-14 07:20 074 0 gusting 1 13.3
2020-Aug-14 07:10 074 13.3
2020-Aug-14 07:00 074 13.3
2020-Aug-14 06:50 074 13.3
2020-Aug-14 06:40 074 13.3
2020-Aug-14 06:30 074 12.8
2020-Aug-14 06:20 068 12.8
2020-Aug-14 06:10 109 12.8
2020-Aug-14 06:00 109 0 gusting 6 12.8
2020-Aug-14 05:50 129 2 gusting 6 12.8
2020-Aug-14 05:40 264 1 gusting 5 12.8
2020-Aug-14 05:30 026 12.8
2020-Aug-14 05:20 122 12.8
2020-Aug-14 05:10 122 12.8
2020-Aug-14 05:00 123 12.8
2020-Aug-14 04:50 123 12.8
2020-Aug-14 04:40 123 12.2
2020-Aug-14 04:30 123 12.2
2020-Aug-14 04:20 119 0 gusting 5 12.2
2020-Aug-14 04:10 041 12.2
2020-Aug-14 04:00 12.2
2020-Aug-14 03:50 333 12.2
2020-Aug-14 03:40 333 12.2
2020-Aug-14 03:30 333 12.2
2020-Aug-14 03:20 333 12.2
2020-Aug-14 03:10 333 12.2
2020-Aug-14 03:00 333 12.2
2020-Aug-14 02:50 333 12.2
2020-Aug-14 02:40 333 12.2
2020-Aug-14 02:30 333 12.2
2020-Aug-14 02:20 333 12.2
2020-Aug-14 02:10 333 12.2
2020-Aug-14 02:00 333 12.2
2020-Aug-14 01:50 333 12.2
2020-Aug-14 01:40 333 12.2
2020-Aug-14 01:30 333 12.2
2020-Aug-14 01:20 333 12.2
2020-Aug-14 01:10 333 12.2
2020-Aug-14 01:00 333 12.2
2020-Aug-14 00:50 333 12.2
2020-Aug-14 00:40 333 12.2
2020-Aug-14 00:20 333 12.2
2020-Aug-14 00:10 333 12.2
2020-Aug-14 00:00 333 12.2
2020-Aug-13 23:00 333 12.8
2020-Aug-13 22:50 333 12.8
2020-Aug-13 22:40 333 12.8
2020-Aug-13 22:30 333 12.8
2020-Aug-13 22:20 333 12.8
2020-Aug-13 22:10 333 12.8
2020-Aug-13 22:00 333 12.8
2020-Aug-13 21:50 333 12.8
2020-Aug-13 21:40 333 12.8
2020-Aug-13 21:30 333 12.8
2020-Aug-13 21:20 333 12.8
2020-Aug-13 21:10 333 12.8
2020-Aug-13 21:00 333 12.8
2020-Aug-13 20:50 333 12.8
2020-Aug-13 20:40 333 12.8
2020-Aug-13 20:30 333 12.8
2020-Aug-13 20:20 333 12.8
2020-Aug-13 20:10 333 12.8
2020-Aug-13 20:00 333 12.8
2020-Aug-13 19:50 333 13.3
2020-Aug-13 19:40 333 13.3
2020-Aug-13 19:30 328 13.3
2020-Aug-13 19:20 328 13.3
2020-Aug-13 19:10 328 13.3
2020-Aug-13 19:00 328 13.3